SL-8 DEB, 21155

Orbit data source: Space-Track

SL-8 DEB, 21155 is space debris in LEO originally from a launch on Tue, 12 Feb 1991 UTC launched from the Plesetsk Missile And Space Complex (PKMTR). Debris objects in space refer to the collection of defunct objects orbiting the Earth. Examples of debris include non-operational satellites, rocket bodies, and fragments generated from explosions, collisions, or faulty payload assembly.

Loading next visibility...
Identifier
21155, 1991-009S
Orbit
LEO
Country
Flag of CISCIS
Related business
Manufacturer
Unknown
Mission
Spacecraft
Bus & Motor
Unknown
Mass
Unknown
Launch date (UTC)
1991-02-12 (35 years ago)
Launch vehicle
Unknown
Launch site
Plesetsk Missile And Space Complex (PKMTR)
Object type
Payload
Rocket body
Debris
Shape & HBR
Unknown shape, 0.2 m
Radar Cross Section
Medium (>0.1 m² and <1 m²)

Expand to show TLE details & history
Last TLE update: 3 days ago

TLE from 3 days ago
0 SL-8 DEB
1 21155U 91009S   26170.83532501  .00000015  00000-0  24163-3 0  9991
2 21155  73.9228  93.3512 0143484  42.0037  16.5587 12.30738904588134
Epoch: 2026-06-19T20:02Z
TLE epoch observation values (Epoch: 2026-06-19T20:02:52.080Z)
Latitude
55.58498°
Longitude
-90.67826°
Altitude
1,446.072 km
Speed
7.193 km/s
True Right ascension
07h 52m 23s
True Declination
55° 26' 19"
Sunlit
Object was in daylight at epoch
Visualization orbit readout
Latitude
Unknown
Longitude
Unknown
Altitude
Unknown
Speed
Unknown
Apparent Right ascension
Unknown
Apparent Declination
Unknown
Sunlit
N/A
Visualization observer readout
Local Sidereal Time
03:41:39
Azimuth
Unknown
Elevation
Unknown
Doppler factor
Unknown
Orbital elements
Apogee altitude
1,657.643 km
Perigee altitude
1,430.303 km
Semi-major axis
7,922.11 km
Eccentricity
0.01435
Inclination
73.9228°
RAAN
93.3512°
Arg. of periapsis
42.0037°
True anomaly
17.03548°
Mean anomaly
16.5587°
Eccentric anomaly
16.79626°
Mean motion
3.07809 °/min
Orbital period
116.96 mins
BSTAR
0.00024163
Loading maneuver chart data...
Computing Atmospheric mass density...
Loading historical data...
Loading historical data...
Loading historical data...
Loading historical data...
Loading historical data...
Loading historical data...
Loading historical data...

Documentation

Showing up to 5 results
|